When you browse on this site, cookies collect data to enhance your experience and personalize the content and advertising you see.
Visit our Privacy Policy to learn more. By continuing to use the site, you agree to this use of cookies and data.
  • In Österreich
  • Länderverzeichnis
  • Für 7 Tage
  • Wassertemperatur
  • Wetterkarte
  • News
  • Widgets
  • user-avatar
    Anmelden

    Stündliche Wetter Subachoque

    Heute, 23 September, Montag

    Zeit Temperatur Niederschläge Wind Luftdruck Luftfeuchtigkeit
    00:00 +10°C° 0.1 mm 1 m/S 553 mmHg 89%
    01:00 +10°C° 0 mm 1 m/S 553 mmHg 89%
    02:00 +10°C° 0.2 mm 1 m/S 553 mmHg 89%
    03:00 +10°C° 0.2 mm 1 m/S 553 mmHg 88%
    04:00 +10°C° 0.2 mm 1 m/S 553 mmHg 88%
    05:00 +10°C° 0.1 mm 1 m/S 553 mmHg 86%
    06:00 +11°C° 0.1 mm 1 m/S 554 mmHg 84%
    07:00 +11°C° 0.1 mm 1 m/S 554 mmHg 83%
    08:00 +14°C° 0 mm 1 m/S 556 mmHg 75%
    09:00 +16°C° 0 mm 1 m/S 557 mmHg 67%
    10:00 +19°C° 0 mm 1 m/S 558 mmHg 59%
    11:00 +19°C° 0.4 mm 1 m/S 557 mmHg 63%
    12:00 +19°C° 0.4 mm 1 m/S 556 mmHg 66%
    13:00 +18°C° 0.4 mm 2 m/S 555 mmHg 70%
    14:00 +18°C° 1 mm 1 m/S 555 mmHg 72%
    15:00 +18°C° 1 mm 1 m/S 554 mmHg 74%
    16:00 +16°C° 1 mm 1 m/S 554 mmHg 76%
    17:00 +15°C° 0.9 mm 1 m/S 554 mmHg 80%
    18:00 +14°C° 0.9 mm 1 m/S 553 mmHg 83%
    19:00 +13°C° 0.9 mm 1 m/S 553 mmHg 87%
    20:00 +12°C° 0.3 mm 1 m/S 553 mmHg 87%
    21:00 +12°C° 0.3 mm 1 m/S 554 mmHg 86%
    22:00 +12°C° 0.3 mm 1 m/S 554 mmHg 86%
    23:00 +12°C° 0.1 mm 1 m/S 554 mmHg 86%

    Morgen, 24 September, Dienstag

    Zeit Temperatur Niederschläge Wind Luftdruck Luftfeuchtigkeit
    00:00 +11°C° 0.1 mm 1 m/S 553 mmHg 87%
    01:00 +11°C° 0.1 mm 1 m/S 553 mmHg 87%
    02:00 +11°C° 0 mm 1 m/S 553 mmHg 87%
    03:00 +10°C° 0 mm 1 m/S 553 mmHg 87%
    04:00 +10°C° 0 mm 1 m/S 552 mmHg 88%
    05:00 +11°C° 0 mm 1 m/S 553 mmHg 86%
    06:00 +11°C° 0 mm 1 m/S 554 mmHg 84%
    07:00 +12°C° 0 mm 1 m/S 554 mmHg 82%
    08:00 +13°C° 0.1 mm 1 m/S 555 mmHg 77%
    09:00 +15°C° 0.1 mm 1 m/S 557 mmHg 72%
    10:00 +18°C° 0.1 mm 1 m/S 558 mmHg 68%
    11:00 +17°C° 0.7 mm 2 m/S 557 mmHg 70%
    12:00 +17°C° 0.7 mm 2 m/S 556 mmHg 73%
    13:00 +17°C° 0.7 mm 2 m/S 555 mmHg 76%
    14:00 +16°C° 0.8 mm 1 m/S 555 mmHg 77%
    15:00 +16°C° 0.8 mm 1 m/S 554 mmHg 78%
    16:00 +15°C° 0.8 mm 1 m/S 554 mmHg 79%
    17:00 +14°C° 0.6 mm 1 m/S 553 mmHg 82%
    18:00 +13°C° 0.6 mm 1 m/S 553 mmHg 85%
    19:00 +12°C° 0.6 mm 1 m/S 553 mmHg 89%
    20:00 +12°C° 0.1 mm 1 m/S 553 mmHg 88%
    21:00 +12°C° 0.1 mm 1 m/S 554 mmHg 87%
    22:00 +11°C° 0.1 mm 1 m/S 554 mmHg 86%
    23:00 +11°C° 0 mm 1 m/S 554 mmHg 86%

    übermorgen, 25 September, Mittwoch

    Zeit Temperatur Niederschläge Wind Luftdruck Luftfeuchtigkeit
    00:00 +11°C° 0 mm 1 m/S 553 mmHg 86%
    01:00 +11°C° 0 mm 1 m/S 553 mmHg 85%
    02:00 +10°C° 0 mm 0 m/S 553 mmHg 85%
    03:00 +10°C° 0 mm 0 m/S 553 mmHg 86%
    04:00 +10°C° 0 mm 0 m/S 553 mmHg 86%
    05:00 +11°C° 0 mm 0 m/S 554 mmHg 85%
    06:00 +11°C° 0 mm 0 m/S 554 mmHg 83%
    07:00 +12°C° 0 mm 1 m/S 555 mmHg 82%
    08:00 +14°C° 0.2 mm 1 m/S 556 mmHg 79%
    09:00 +15°C° 0.2 mm 1 m/S 557 mmHg 75%
    10:00 +18°C° 0.2 mm 1 m/S 557 mmHg 71%
    11:00 +18°C° 1.3 mm 1 m/S 557 mmHg 72%
    12:00 +18°C° 1.3 mm 1 m/S 556 mmHg 73%
    13:00 +18°C° 1.3 mm 1 m/S 555 mmHg 75%
    14:00 +18°C° 1.6 mm 1 m/S 555 mmHg 76%
    15:00 +18°C° 1.6 mm 1 m/S 554 mmHg 77%
    16:00 +16°C° 1.6 mm 1 m/S 554 mmHg 79%
    17:00 +15°C° 1.7 mm 1 m/S 554 mmHg 83%
    18:00 +14°C° 1.7 mm 1 m/S 553 mmHg 87%
    19:00 +13°C° 1.7 mm 1 m/S 553 mmHg 91%
    20:00 +12°C° 0.8 mm 1 m/S 553 mmHg 91%
    21:00 +12°C° 0.8 mm 1 m/S 554 mmHg 92%
    22:00 +10°C° 0.8 mm 0 m/S 554 mmHg 92%
    23:00 +11°C° 0.1 mm 1 m/S 553 mmHg 92%

    26 September, Donnerstag

    Zeit Temperatur Niederschläge Wind Luftdruck Luftfeuchtigkeit
    00:00 +11°C° 0.1 mm 1 m/S 553 mmHg 92%
    01:00 +10°C° 0.1 mm 1 m/S 553 mmHg 91%
    02:00 +10°C° 0 mm 1 m/S 552 mmHg 90%
    03:00 +10°C° 0 mm 1 m/S 552 mmHg 90%
    04:00 +10°C° 0 mm 1 m/S 552 mmHg 89%
    05:00 +11°C° 0 mm 1 m/S 553 mmHg 87%
    06:00 +11°C° 0 mm 1 m/S 554 mmHg 86%
    07:00 +12°C° 0 mm 1 m/S 554 mmHg 84%
    08:00 +14°C° 0 mm 1 m/S 555 mmHg 78%
    09:00 +15°C° 0 mm 1 m/S 556 mmHg 71%
    10:00 +18°C° 0 mm 1 m/S 557 mmHg 64%
    11:00 +18°C° 1 mm 1 m/S 556 mmHg 69%
    12:00 +18°C° 1 mm 1 m/S 556 mmHg 73%
    13:00 +17°C° 1 mm 2 m/S 555 mmHg 77%
    14:00 +16°C° 1.3 mm 1 m/S 554 mmHg 78%
    15:00 +16°C° 1.3 mm 1 m/S 554 mmHg 78%
    16:00 +16°C° 1.3 mm 1 m/S 553 mmHg 79%
    17:00 +15°C° 0.7 mm 1 m/S 553 mmHg 82%
    18:00 +13°C° 0.7 mm 1 m/S 553 mmHg 85%
    19:00 +12°C° 0.7 mm 1 m/S 552 mmHg 88%
    20:00 +11°C° 0.2 mm 1 m/S 552 mmHg 88%
    21:00 +11°C° 0.2 mm 1 m/S 552 mmHg 88%
    22:00 +9°C° 0.2 mm 2 m/S 553 mmHg 88%
    23:00 +10°C° 0.1 mm 1 m/S 552 mmHg 87%

    27 September, Freitag

    Zeit Temperatur Niederschläge Wind Luftdruck Luftfeuchtigkeit
    00:00 +11°C° 0.1 mm 1 m/S 552 mmHg 87%
    01:00 +11°C° 0.1 mm 1 m/S 552 mmHg 86%
    02:00 +10°C° 0 mm 1 m/S 552 mmHg 86%
    03:00 +10°C° 0 mm 1 m/S 552 mmHg 86%
    04:00 +10°C° 0 mm 1 m/S 552 mmHg 87%
    05:00 +10°C° 0 mm 1 m/S 552 mmHg 85%
    06:00 +11°C° 0 mm 1 m/S 553 mmHg 83%
    07:00 +12°C° 0 mm 1 m/S 554 mmHg 81%
    08:00 +14°C° 0.1 mm 1 m/S 555 mmHg 75%
    09:00 +16°C° 0.1 mm 1 m/S 556 mmHg 69%
    10:00 +19°C° 0.1 mm 1 m/S 557 mmHg 64%
    11:00 +17°C° 0.9 mm 2 m/S 556 mmHg 68%
    12:00 +17°C° 0.9 mm 2 m/S 556 mmHg 72%
    13:00 +17°C° 0.9 mm 2 m/S 555 mmHg 76%
    14:00 +17°C° 1.2 mm 2 m/S 554 mmHg 77%
    15:00 +16°C° 1.2 mm 1 m/S 554 mmHg 78%
    16:00 +16°C° 1.2 mm 1 m/S 553 mmHg 79%
    17:00 +15°C° 0.9 mm 1 m/S 553 mmHg 83%
    18:00 +13°C° 0.9 mm 1 m/S 553 mmHg 87%
    19:00 +12°C° 0.9 mm 1 m/S 552 mmHg 91%
    20:00 +11°C° 0.3 mm 1 m/S 552 mmHg 90%
    21:00 +11°C° 0.3 mm 1 m/S 553 mmHg 89%
    22:00 +11°C° 0.3 mm 1 m/S 553 mmHg 89%
    23:00 +10°C° 0.1 mm 1 m/S 552 mmHg 89%

    28 September, Samstag

    Zeit Temperatur Niederschläge Wind Luftdruck Luftfeuchtigkeit
    00:00 +10°C° 0.1 mm 1 m/S 552 mmHg 88%
    01:00 +10°C° 0.1 mm 1 m/S 552 mmHg 88%
    02:00 +10°C° 0 mm 1 m/S 552 mmHg 88%
    03:00 +10°C° 0 mm 1 m/S 551 mmHg 88%
    04:00 +9°C° 0 mm 1 m/S 551 mmHg 88%
    05:00 +10°C° 0 mm 1 m/S 552 mmHg 85%
    06:00 +11°C° 0 mm 1 m/S 553 mmHg 83%
    07:00 +12°C° 0 mm 1 m/S 554 mmHg 81%
    08:00 +14°C° 0.1 mm 1 m/S 555 mmHg 73%
    09:00 +16°C° 0.1 mm 1 m/S 556 mmHg 66%
    10:00 +19°C° 0.1 mm 1 m/S 557 mmHg 58%
    11:00 +19°C° 0.4 mm 1 m/S 557 mmHg 60%
    12:00 +19°C° 0.4 mm 1 m/S 556 mmHg 62%
    13:00 +18°C° 0.4 mm 2 m/S 555 mmHg 65%
    14:00 +19°C° 1 mm 1 m/S 554 mmHg 70%
    15:00 +18°C° 1 mm 1 m/S 553 mmHg 76%
    16:00 +16°C° 1 mm 1 m/S 553 mmHg 81%
    17:00 +15°C° 1.4 mm 1 m/S 552 mmHg 85%
    18:00 +14°C° 1.4 mm 1 m/S 552 mmHg 88%
    19:00 +11°C° 1.4 mm 0 m/S 552 mmHg 91%
    20:00 +11°C° 0.7 mm 0 m/S 552 mmHg 91%
    21:00 +12°C° 0.7 mm 1 m/S 552 mmHg 91%
    22:00 +11°C° 0.7 mm 1 m/S 552 mmHg 92%
    23:00 +11°C° 0.1 mm 1 m/S 552 mmHg 92%
    Mehr zeigen